Location: Hlohovi?ky
(49.8934°N, 13.6739°E)
Time: 17:40:14
(UTC+00:00)

In-Cosmos 22 - Pass Details

Date: 19 May 2025
Orbit: 783 x 874 km, 81.2° (Epoch: 16 June)

Event Time Altitude Azimuth Distance (km) Brightness Sun altitude
Exits shadow 23:31:02 37° 179° (S) 1,321 4.7 -19.8°
Maximum altitude 23:33:25 78° 99° (E) 895 4.2 -19.8°
Drops below altitude 10° 23:39:11 10° 14° (NNE) 2,538 7.9 -19.6°
Sets 23:41:39 0° 14° (NNE) 3,481 9.0 -19.6°
